Dare County Gunnery Range, NC

6:25 AM EST on November 19, 2017 (GMT -0500)
Dare County Gunnery Range

Weather History for K2DP - March, 2014

Change the Weather History Date:

Friday, March 28, 2014

  Actual Average (KMQI) Record (KMQI)
Temperature  
Mean Temperature 51 °F -  
Max Temperature 70 °F 60 °F 80 °F (1968)
Min Temperature 33 °F 46 °F 30 °F (1971)
Degree Days  
Heating Degree Days 14    
Growing Degree Days 1 (Base 50)    
Moisture  
Dew Point 43 °F    
Average Humidity 86    
Maximum Humidity 100    
Minimum Humidity 59    
Precipitation  
Precipitation 0.00 in - - ()
Sea Level Pressure  
Sea Level Pressure 30.29 in    
Wind  
Wind Speed 6 mph (SSW)    
Max Wind Speed 30 mph    
Max Gust Speed 38 mph    
Visibility 8 miles    
Events Fog , Rain    
Averages and records for this station are not official NWS values.
T = Trace of Precipitation, MM = Missing Value Source: NWS Daily Summary

Daily Weather History Graph

Daily Weather History Graph

Search for Another Location

Airport or City:

Trip Planner

Search our weather history database for the weather conditions in past years. The results will help you decide how hot, cold, wet, or windy it might be!

Date:

Astronomy

Mar. 28, 2014 Rise Set
Actual Time 6:55 AM EDT 7:21 PM EDT
Civil Twilight 6:30 AM EDT 7:47 PM EDT
Nautical Twilight 6:00 AM EDT 8:17 PM EDT
Astronomical Twilight 5:29 AM EDT 8:48 PM EDT
Moon 5:20 AM EDT (3/28) 5:19 PM EDT (3/28)
Length of Visible Light 13h 17m
Length of Day
12h 26m
Waning Crescent, 6% of the Moon is Illuminated
Mar 28
Waning Crescent
Mar 30
New
Apr 7
First Quarter
Apr 15
Full
Apr 22
Last Quarter

Hourly Weather History & Observations

Time (EDT) Temp. Windchill Dew Point Humidity Pressure Visibility Wind Dir Wind Speed Gust Speed Precip Events Conditions
12:17 AM 35.6 °F - 35.6 °F 100% 30.38 in 2.5 mi NNE 1.2 mph - N/A   Clear
12:27 AM 35.6 °F - 33.8 °F 93% 30.38 in 8.0 mi Variable 1.2 mph - N/A   Clear
12:56 AM 36.3 °F - 35.6 °F 97% 30.37 in 9.0 mi NNE 1.2 mph - N/A   Clear
1:56 AM 35.6 °F 32.8 °F 35.6 °F 100% 30.33 in 11.0 mi South 3.5 mph - N/A   Clear
2:52 AM 37.4 °F - 35.6 °F 93% 30.31 in 12.0 mi South 2.3 mph - N/A   Scattered Clouds
2:56 AM 36.5 °F - 36.0 °F 98% 30.31 in 11.0 mi South 2.3 mph - N/A   Scattered Clouds
3:19 AM 35.6 °F 31.7 °F 35.6 °F 100% 30.31 in 0.9 mi South 4.6 mph - N/A Fog Fog
3:26 AM 37.4 °F 34.9 °F 37.4 °F 100% 30.31 in 1.4 mi SSW 3.5 mph - N/A Rain Light Rain
3:36 AM 35.6 °F 32.8 °F 33.8 °F 93% 30.31 in 0.8 mi SW 3.5 mph - N/A Fog , Rain Light Rain Showers
3:41 AM - - - N/A% 30.31 in 0.6 mi SSW 2.3 mph - N/A Fog Fog
3:52 AM 35.6 °F 32.8 °F 33.8 °F 93% 30.31 in 1.4 mi South 3.5 mph - N/A Fog Patches of Fog
3:56 AM 34.9 °F 32.0 °F 34.3 °F 98% 30.31 in 1.0 mi South 3.5 mph - N/A Fog Patches of Fog
4:05 AM 33.8 °F 30.8 °F 33.8 °F 100% 30.31 in 0.8 mi South 3.5 mph - N/A Fog , Rain Light Rain
4:15 AM - - - N/A% 30.31 in 1.4 mi South 3.5 mph - N/A Fog , Rain Light Rain Showers
4:20 AM 37.4 °F 34.9 °F 35.6 °F 93% 30.31 in 9.0 mi SSW 3.5 mph - N/A Fog , Rain Light Rain Showers
4:27 AM 35.6 °F - 35.6 °F 100% 30.31 in 2.0 mi SSW 2.3 mph - N/A Fog Patches of Fog
4:32 AM 35.6 °F 32.8 °F 35.6 °F 100% 30.31 in 1.4 mi South 3.5 mph - N/A Fog Patches of Fog
4:37 AM 35.6 °F 32.8 °F 35.6 °F 100% 30.32 in 2.2 mi SSW 3.5 mph - N/A Fog Patches of Fog
4:42 AM 35.6 °F 32.8 °F 35.6 °F 100% 30.31 in 5.0 mi SSW 3.5 mph - N/A Fog Patches of Fog
4:54 AM 37.4 °F 33.8 °F 37.4 °F 100% 30.31 in 3.0 mi South 4.6 mph - N/A   Clear
4:55 AM 37.4 °F 33.8 °F 37.4 °F 100% 30.31 in 2.8 mi South 4.6 mph - N/A Rain Light Rain Showers
4:56 AM 37.6 °F 34.0 °F 37.0 °F 98% 30.31 in 2.5 mi South 4.6 mph - N/A Rain Light Rain Showers
5:01 AM 37.4 °F 33.8 °F 37.4 °F 100% 30.32 in 1.2 mi South 4.6 mph - N/A Rain Light Rain Showers
5:12 AM 37.4 °F 34.9 °F 37.4 °F 100% 30.32 in 5.0 mi SSW 3.5 mph - N/A Rain Light Rain Showers
5:17 AM 37.4 °F 34.9 °F 35.6 °F 93% 30.31 in 3.0 mi SSW 3.5 mph - N/A   Clear
5:28 AM 37.4 °F 33.8 °F 35.6 °F 93% 30.31 in 6.0 mi SSW 4.6 mph - N/A   Scattered Clouds
5:56 AM 39.7 °F 35.6 °F 39.0 °F 97% 30.31 in 12.0 mi SSW 5.8 mph - N/A   Scattered Clouds
6:56 AM 45.9 °F 43.6 °F 44.2 °F 94% 30.30 in 12.0 mi South 4.6 mph - N/A   Clear
7:56 AM 48.4 °F - 46.8 °F 94% 30.30 in 12.0 mi South 4.6 mph - N/A   Partly Cloudy
8:56 AM 60.1 °F - 51.1 °F 72% 30.29 in 12.0 mi South 12.7 mph - N/A   Clear
9:56 AM 64.9 °F - 50.5 °F 60% 30.29 in 12.0 mi South 15.0 mph 23.0 mph N/A   Clear
10:56 AM 66.9 °F - 52.7 °F 60% 30.29 in 12.0 mi South 19.6 mph 26.5 mph N/A   Clear
11:56 AM 68.5 °F - 54.0 °F 60% 30.29 in 12.0 mi SSW 20.7 mph 28.8 mph N/A   Clear
12:56 PM 68.9 °F - 54.1 °F 59% 30.26 in 12.0 mi SSW 21.9 mph 33.4 mph N/A   Clear
1:12 PM 69.8 °F - 55.4 °F 60% 30.25 in 12.0 mi SSW 24.2 mph 38.0 mph N/A   Squalls
1:56 PM 69.4 °F - 55.0 °F 60% 30.23 in 12.0 mi SSW 29.9 mph 38.0 mph N/A   Partly Cloudy
2:56 PM 69.8 °F - 55.4 °F 60% 30.21 in 12.0 mi SSW 17.3 mph 38.0 mph N/A   Scattered Clouds
3:56 PM 68.4 °F - 55.6 °F 64% 30.20 in 12.0 mi SSW 23.0 mph 34.5 mph N/A   Mostly Cloudy
4:56 PM 66.9 °F - 55.6 °F 67% 30.20 in 12.0 mi SSW 17.3 mph 27.6 mph N/A   Mostly Cloudy
5:56 PM 65.3 °F - 54.7 °F 68% 30.20 in 12.0 mi SSW 17.3 mph 25.3 mph N/A   Mostly Cloudy
6:56 PM 64.2 °F - 54.7 °F 71% 30.21 in 12.0 mi SSW 13.8 mph 25.3 mph N/A   Mostly Cloudy
7:56 PM 63.0 °F - 55.0 °F 75% 30.21 in 12.0 mi South 10.4 mph 21.9 mph N/A   Mostly Cloudy
8:56 PM 62.8 °F - 54.9 °F 75% 30.22 in 12.0 mi South 15.0 mph - N/A   Overcast
9:56 PM 63.9 °F - 55.6 °F 74% 30.21 in 12.0 mi SSW 13.8 mph 21.9 mph N/A   Mostly Cloudy
10:56 PM 61.9 °F - 55.6 °F 80% 30.20 in 12.0 mi South 8.1 mph - N/A   Mostly Cloudy
11:56 PM 58.3 °F - 54.1 °F 86% 30.20 in 12.0 mi SSW 5.8 mph - N/A   Overcast